Location: Marcé
(47.5801°N, 0.3280°W)
Time: 18:06:31
(UTC+01:00)

Vanguard 2 Rocket - Pass Details

Date: 11 December 2021
Orbit: 553 x 3325 km, 32.9° (Epoch: 23 January)

Event Time Altitude Azimuth Distance (km) Brightness Sun altitude
Rises 18:22:07 0° 234° (SW) 2,881 11.2 -11.6°
Reaches altitude 10° 18:24:45 10° 214° (SSW) 2,157 9.7 -12.0°
Maximum altitude 18:28:07 18° 169° (S) 1,935 8.7 -12.5°
Drops below altitude 10° 18:32:32 10° 128° (SE) 2,935 9.2 -13.2°
Enters shadow 18:35:36 - 116° (ESE) 3,947 9.7 -13.7°
Sets 18:36:58 0° 113° (ESE) 4,419 - -13.9°
